This is the latest recevied weather packets stored in our database for station/object K6GMW. If no packets are shown the sender has not sent any weather packets the latest 10 day(s).
| Time | Temp. | Humidity | Pressure | Rain* | Wind** | Luminosity | Snow |
|---|---|---|---|---|---|---|---|
| 1777853243 | 26.11° C | 39% | 1017.7 hPa | 0 mm | - | 54 W/m² | - |
| 1777852940 | 26.67° C | 38% | 1017.6 hPa | 0 mm | - | 59 W/m² | - |
| 1777852638 | 26.67° C | 37% | 1017.6 hPa | 0 mm | - | 65 W/m² | - |
| 1777852335 | 26.67° C | 38% | 1017.6 hPa | 0 mm | - | 75 W/m² | - |
| 1777852033 | 26.67° C | 38% | 1017.7 hPa | 0 mm | - | 89 W/m² | - |
| 1777851731 | 26.67° C | 36% | 1017.7 hPa | 0 mm | - | 109 W/m² | - |
| 1777851427 | 26.67° C | 36% | 1017.8 hPa | 0 mm | - | 128 W/m² | - |
| 1777851123 | 26.67° C | 36% | 1017.5 hPa | 0 mm | - | 142 W/m² | - |
| 1777850820 | 26.67° C | 38% | 1017.8 hPa | 0 mm | - | 156 W/m² | - |
| 1777850517 | 27.22° C | 38% | 1017.9 hPa | 0 mm | - | 176 W/m² | - |
| 1777850215 | 27.22° C | 37% | 1017.8 hPa | 0 mm | - | 194 W/m² | - |
| 1777849911 | 26.67° C | 36% | 1017.8 hPa | 0 mm | - | 211 W/m² | - |
| 1777849608 | 26.67° C | 36% | 1017.7 hPa | 0 mm | - | 231 W/m² | - |
| 1777849305 | 26.67° C | 36% | 1017.8 hPa | 0 mm | - | 258 W/m² | - |
| 1777849003 | 26.67° C | 37% | 1017.7 hPa | 0 mm | - | 285 W/m² | - |
| 1777848702 | 27.22° C | 35% | 1017.8 hPa | 0 mm | - | 303 W/m² | - |
| 1777848400 | 27.22° C | 37% | 1017.7 hPa | 0 mm | - | 317 W/m² | - |
| 1777848098 | 26.67° C | 38% | 1017.7 hPa | 0 mm | - | 338 W/m² | - |
| 1777847796 | 26.67° C | 38% | 1017.8 hPa | 0 mm | - | 355 W/m² | - |
| 1777847492 | 27.22° C | 38% | 1017.7 hPa | 0 mm | - | 377 W/m² | - |
| 1777847189 | 27.22° C | 36% | 1017.9 hPa | 0 mm | - | 361 W/m² | - |
| 1777846887 | 27.22° C | 35% | 1017.9 hPa | 0 mm | - | 424 W/m² | - |
| 1777846585 | 27.22° C | 37% | 1017.9 hPa | 0 mm | - | 451 W/m² | - |
| 1777846282 | 27.22° C | 37% | 1017.9 hPa | 0 mm | - | 467 W/m² | - |
| 1777845979 | 26.67° C | 36% | 1018 hPa | 0 mm | - | 495 W/m² | - |
* Rain latest hour (hover to see other rain measurements)
** Current wind speed in m/s (hover to see current wind gust speed)